^^
Datos históricos de la estación: Murcia-Puente Tocinos
Diario Informe para Mayo 5, 2019 Unidades:  Métrico    Inglés   Ambas
Diario Semanal Mensual Anual Configurable
  Máximo: Mínimo: Media:
Temperatura: 22.0 °C 14.0 °C 18.1 °C
Punto de rocio: 13.4 °C 9.3 °C 11.6 °C
Humedad: 85% 49% 67%
Velocidad viento: 19.8km/h 0.0km/h 10.1km/h
Racha viento: 35.2km/h - -
Viento- - SE
Presión: 1015.1 hPa 1010.2 hPa -
Precipitación: 0.0 mm    
Historical Graphs
 
 
Tabla de datos para Mayo 5, 2019
Hora Temperatura Punto de rocio Presión Viento Velocidad viento Racha viento Humedad Intensidad lluvia(por hora) Nubes
00:00 16.8 °C 12.9 °C 1011.3 hPa East 3.2 km/h 11.3 km/h 78% 0.0 mm CLR
00:05 16.7 °C 12.8 °C 1011.3 hPa SE 4.7 km/h   78% 0.0 mm CLR
00:10 16.7 °C 12.8 °C 1011.3 hPa ESE 3.2 km/h 3.2 km/h 78% 0.0 mm CLR
00:15 16.8 °C 12.9 °C 1011.3 hPa ESE 3.2 km/h 3.7 km/h 78% 0.0 mm CLR
00:20 16.8 °C 12.9 °C 1011.2 hPa Calm   7.4 km/h 78% 0.0 mm CLR
00:25 16.8 °C 12.9 °C 1011.2 hPa Calm   3.7 km/h 78% 0.0 mm CLR
00:30 16.8 °C 12.9 °C 1011.2 hPa NW 3.9 km/h 3.7 km/h 78% 0.0 mm CLR
00:35 16.7 °C 12.8 °C 1011.1 hPa NW 3.9 km/h 5.8 km/h 78% 0.0 mm CLR
00:40 16.7 °C 12.8 °C 1011.1 hPa WNW 2.9 km/h 7.4 km/h 78% 0.0 mm CLR
00:45 16.7 °C 12.8 °C 1011.1 hPa WSW 2.9 km/h 11.1 km/h 78% 0.0 mm CLR
00:50 16.7 °C 12.8 °C 1011.2 hPa South 5.8 km/h 5.6 km/h 78% 0.0 mm CLR
00:55 16.7 °C 12.8 °C 1011.2 hPa SSE 5.8 km/h 5.6 km/h 78% 0.0 mm CLR
01:00 16.8 °C 12.9 °C 1011.2 hPa SSE 3.2 km/h 8.0 km/h 78% 0.0 mm CLR
01:05 16.8 °C 12.9 °C 1011.0 hPa SSE 3.2 km/h 6.9 km/h 78% 0.0 mm CLR
01:10 16.8 °C 12.9 °C 1011.0 hPa SW 3.2 km/h 7.4 km/h 78% 0.0 mm CLR
01:15 16.8 °C 12.9 °C 1011.0 hPa SSW 3.2 km/h 13.0 km/h 78% 0.0 mm CLR
01:20 16.8 °C 13.1 °C 1011.1 hPa SW 6.9 km/h 13.0 km/h 79% 0.0 mm CLR
01:25 16.7 °C 13.2 °C 1011.1 hPa WSW 6.9 km/h 16.7 km/h 80% 0.0 mm CLR
01:30 16.7 °C 13.2 °C 1011.1 hPa SW 9.5 km/h 11.9 km/h 80% 0.0 mm CLR
01:35 16.7 °C 13.2 °C 1011.1 hPa SSW 9.5 km/h 13.0 km/h 80% 0.0 mm CLR
01:40 16.6 °C 13.3 °C 1011.1 hPa SW 6.9 km/h 11.1 km/h 81% 0.0 mm CLR
01:45 16.6 °C 13.3 °C 1011.1 hPa SW 6.9 km/h 13.0 km/h 81% 0.0 mm CLR
01:50 16.6 °C 13.3 °C 1011.0 hPa WSW 6.9 km/h 18.5 km/h 81% 0.0 mm CLR
01:55 16.6 °C 13.3 °C 1011.0 hPa West 6.9 km/h 16.1 km/h 81% 0.0 mm CLR
02:00 16.4 °C 13.3 °C 1011.0 hPa WSW 9.7 km/h 16.1 km/h 82% 0.0 mm CLR
02:05 16.4 °C 13.3 °C 1010.7 hPa SW 9.5 km/h 14.8 km/h 82% 0.0 mm CLR
02:10 16.4 °C 13.3 °C 1010.7 hPa West 9.5 km/h 11.1 km/h 82% 0.0 mm CLR
02:15 16.4 °C 13.3 °C 1010.7 hPa SW 9.5 km/h 13.0 km/h 82% 0.0 mm CLR
02:20 16.4 °C 13.3 °C 1010.7 hPa SW 8.7 km/h 14.8 km/h 82% 0.0 mm CLR
02:25 16.3 °C 13.4 °C 1010.7 hPa WSW 8.7 km/h 14.8 km/h 83% 0.0 mm CLR
02:30 16.3 °C 13.4 °C 1010.7 hPa SW 10.3 km/h 24.1 km/h 83% 0.0 mm CLR
02:35 16.3 °C 13.4 °C 1010.5 hPa West 10.3 km/h 14.8 km/h 83% 0.0 mm CLR
02:40 16.2 °C 13.3 °C 1010.5 hPa SW 11.9 km/h 16.7 km/h 83% 0.0 mm CLR
02:45 16.3 °C 13.4 °C 1010.5 hPa South 11.9 km/h 14.8 km/h 83% 0.0 mm CLR
02:50 16.2 °C 13.3 °C 1010.3 hPa SW 10.3 km/h 14.8 km/h 83% 0.0 mm CLR
02:55 16.2 °C 13.3 °C 1010.3 hPa WSW 10.3 km/h 16.7 km/h 83% 0.0 mm CLR
03:00 16.1 °C 13.2 °C 1010.3 hPa SW 11.3 km/h 16.1 km/h 83% 0.0 mm CLR
03:05 16.1 °C 13.2 °C 1010.3 hPa SSW 10.3 km/h 9.3 km/h 83% 0.0 mm CLR
03:10 16.0 °C 13.1 °C 1010.3 hPa SW 7.6 km/h 9.3 km/h 83% 0.0 mm CLR
03:15 16.0 °C 13.1 °C 1010.3 hPa SW 7.6 km/h 9.3 km/h 83% 0.0 mm CLR
03:20 15.9 °C 13.0 °C 1010.3 hPa SW 6.4 km/h 9.3 km/h 83% 0.0 mm CLR
03:25 15.9 °C 12.8 °C 1010.3 hPa SW 6.4 km/h 9.3 km/h 82% 0.0 mm CLR
03:30 15.9 °C 12.8 °C 1010.3 hPa SW 6.4 km/h 9.5 km/h 82% 0.0 mm CLR
03:35 15.9 °C 12.8 °C 1010.2 hPa SSW 6.4 km/h 13.0 km/h 82% 0.0 mm CLR
03:40 15.9 °C 12.8 °C 1010.2 hPa SSW 8.7 km/h 18.5 km/h 82% 0.0 mm CLR
03:45 15.8 °C 12.7 °C 1010.2 hPa SW 8.7 km/h 18.5 km/h 82% 0.0 mm CLR
03:50 15.8 °C 12.7 °C 1010.3 hPa SW 11.9 km/h 15.6 km/h 82% 0.0 mm CLR
03:55 15.7 °C 12.6 °C 1010.3 hPa SW 11.9 km/h 7.4 km/h 82% 0.0 mm CLR
04:00 15.7 °C 12.6 °C 1010.3 hPa SW 8.0 km/h 11.3 km/h 82% 0.0 mm CLR
04:05 15.6 °C 12.6 °C 1010.4 hPa SW 6.9 km/h 11.1 km/h 82% 0.0 mm CLR
04:10 15.6 °C 12.7 °C 1010.4 hPa SSW 6.4 km/h 7.4 km/h 83% 0.0 mm CLR
04:15 15.5 °C 12.6 °C 1010.4 hPa South 6.4 km/h 13.0 km/h 83% 0.0 mm CLR
04:20 15.4 °C 12.5 °C 1010.5 hPa South 8.4 km/h 11.1 km/h 83% 0.0 mm CLR
04:25 15.3 °C 12.4 °C 1010.5 hPa SSE 8.4 km/h 13.0 km/h 83% 0.0 mm CLR
04:30 15.1 °C 12.2 °C 1010.5 hPa SSW 9.5 km/h 14.8 km/h 83% 0.0 mm CLR
04:35 15.3 °C 12.4 °C 1010.4 hPa SW 9.5 km/h 11.1 km/h 83% 0.0 mm CLR
04:40 15.4 °C 12.2 °C 1010.4 hPa SSE 9.5 km/h 16.7 km/h 81% 0.0 mm CLR
04:45 15.0 °C 12.1 °C 1010.4 hPa South 9.5 km/h 14.8 km/h 83% 0.0 mm CLR
04:50 14.8 °C 12.1 °C 1010.3 hPa SSW 11.9 km/h 14.8 km/h 84% 0.0 mm CLR
04:55 14.7 °C 12.2 °C 1010.3 hPa SW 11.9 km/h 11.1 km/h 85% 0.0 mm CLR
05:00 14.8 °C 12.3 °C 1010.3 hPa SSW 8.0 km/h 17.7 km/h 85% 0.0 mm CLR
05:05 14.8 °C 12.1 °C 1010.3 hPa WSW 8.4 km/h 9.3 km/h 84% 0.0 mm CLR
05:10 14.9 °C 12.2 °C 1010.3 hPa SW 7.6 km/h 9.3 km/h 84% 0.0 mm CLR
05:15 14.9 °C 12.1 °C 1010.3 hPa WSW 7.6 km/h 9.5 km/h 83% 0.0 mm CLR
05:20 14.9 °C 12.1 °C 1010.6 hPa WSW 5.8 km/h 9.3 km/h 83% 0.0 mm CLR
05:25 14.9 °C 12.1 °C 1010.6 hPa West 5.8 km/h 7.4 km/h 83% 0.0 mm CLR
05:30 14.9 °C 12.1 °C 1010.6 hPa SW 5.0 km/h 8.4 km/h 83% 0.0 mm CLR
05:35 14.9 °C 12.1 °C 1010.6 hPa South 5.0 km/h 9.3 km/h 83% 0.0 mm CLR
05:40 14.9 °C 12.1 °C 1010.6 hPa South 5.8 km/h 9.3 km/h 83% 0.0 mm CLR
05:45 14.9 °C 12.1 °C 1010.6 hPa South 5.8 km/h 11.9 km/h 83% 0.0 mm CLR
05:50 14.8 °C 11.9 °C 1010.7 hPa South 8.4 km/h 13.0 km/h 83% 0.0 mm CLR
05:55 14.8 °C 11.9 °C 1010.7 hPa SSW 8.4 km/h 9.3 km/h 83% 0.0 mm CLR
06:00 14.7 °C 11.8 °C 1010.7 hPa South 8.0 km/h 11.3 km/h 83% 0.0 mm CLR
06:05 14.6 °C 11.9 °C 1010.6 hPa SSW 8.4 km/h 9.5 km/h 84% 0.0 mm CLR
06:10 14.6 °C 11.9 °C 1010.6 hPa SW 8.4 km/h 13.0 km/h 84% 0.0 mm CLR
06:15 14.6 °C 11.9 °C 1010.6 hPa South 8.4 km/h 13.0 km/h 84% 0.0 mm CLR
06:20 14.6 °C 11.9 °C 1010.8 hPa SSW 8.4 km/h 13.0 km/h 84% 0.0 mm CLR
06:25 14.6 °C 11.9 °C 1010.8 hPa SSW 8.4 km/h 11.1 km/h 84% 0.0 mm CLR
06:30 14.6 °C 11.9 °C 1010.8 hPa SSW 9.5 km/h 13.0 km/h 84% 0.0 mm CLR
06:35 14.6 °C 11.9 °C 1011.1 hPa SSW 9.5 km/h 9.3 km/h 84% 0.0 mm CLR
06:40 14.6 °C 11.9 °C 1011.1 hPa SSW 8.4 km/h 9.3 km/h 84% 0.0 mm CLR
06:45 14.6 °C 11.9 °C 1011.1 hPa West 8.4 km/h 11.1 km/h 84% 0.0 mm CLR
06:50 14.7 °C 11.8 °C 1011.3 hPa SW 7.6 km/h 11.1 km/h 83% 0.0 mm CLR
06:55 14.7 °C 11.8 °C 1011.3 hPa WSW 7.6 km/h 9.3 km/h 83% 0.0 mm CLR
07:00 14.7 °C 11.8 °C 1011.3 hPa SW 8.0 km/h 9.7 km/h 83% 0.0 mm CLR
07:05 14.8 °C 11.9 °C 1011.7 hPa SSE 6.4 km/h   83% 0.0 mm CLR
07:10 14.7 °C 11.7 °C 1011.7 hPa SSE 2.9 km/h 3.7 km/h 82% 0.0 mm CLR
07:15 14.6 °C 11.7 °C 1011.7 hPa SSE 2.9 km/h 3.9 km/h 83% 0.0 mm CLR
07:20 14.4 °C 11.6 °C 1012.1 hPa East 2.9 km/h 5.6 km/h 83% 0.0 mm CLR
07:25 14.3 °C 11.4 °C 1012.1 hPa NNE 2.9 km/h 7.4 km/h 83% 0.0 mm CLR
07:30 14.1 °C 11.4 °C 1012.1 hPa East 3.9 km/h 5.6 km/h 84% 0.0 mm CLR
07:35 14.0 °C 11.3 °C 1012.4 hPa ESE 3.9 km/h 5.6 km/h 84% 0.0 mm CLR
07:40 14.1 °C 11.6 °C 1012.4 hPa ESE 2.9 km/h   85% 0.0 mm CLR
07:45 14.3 °C 11.6 °C 1012.4 hPa NE 2.9 km/h 5.6 km/h 84% 0.0 mm CLR
07:50 14.3 °C 11.6 °C 1012.9 hPa NNE 3.2 km/h 7.4 km/h 84% 0.0 mm CLR
07:55 14.4 °C 11.7 °C 1012.9 hPa ENE 3.2 km/h 5.6 km/h 84% 0.0 mm CLR
08:00 14.4 °C 11.6 °C 1012.9 hPa NE 3.2 km/h 8.0 km/h 83% 0.0 mm CLR
08:05 14.6 °C 11.7 °C 1013.1 hPa NNE 3.2 km/h   83% 0.0 mm CLR
08:10 14.6 °C 11.7 °C 1013.1 hPa Calm   5.0 km/h 83% 0.0 mm CLR
08:15 14.7 °C 11.7 °C 1013.1 hPa Calm   3.7 km/h 82% 0.0 mm CLR
08:20 14.6 °C 11.7 °C 1013.3 hPa WNW 3.2 km/h 6.4 km/h 83% 0.0 mm CLR
08:25 14.6 °C 11.7 °C 1013.3 hPa WNW 3.2 km/h 7.4 km/h 83% 0.0 mm CLR
08:30 14.6 °C 11.9 °C 1013.3 hPa NW 3.9 km/h 4.7 km/h 84% 0.0 mm CLR
08:35 14.8 °C 11.9 °C 1013.5 hPa NW 3.9 km/h 5.8 km/h 83% 0.0 mm CLR
08:40 15.0 °C 12.1 °C 1013.5 hPa NW 3.2 km/h   83% 0.0 mm CLR
08:45 15.3 °C 12.4 °C 1013.5 hPa NE 3.2 km/h 4.7 km/h 83% 0.0 mm CLR
08:50 15.8 °C 12.6 °C 1013.6 hPa NNE 2.3 km/h   81% 0.0 mm CLR
08:55 16.1 °C 12.7 °C 1013.6 hPa NW 2.3 km/h 5.0 km/h 80% 0.0 mm CLR
09:00 16.3 °C 12.4 °C 1013.6 hPa Calm   8.0 km/h 78% 0.0 mm CLR
09:05 16.5 °C 12.7 °C 1013.7 hPa Calm   5.6 km/h 78% 0.0 mm CLR
09:10 16.7 °C 12.7 °C 1013.7 hPa NNW 3.2 km/h 9.3 km/h 77% 0.0 mm CLR
09:15 16.9 °C 12.7 °C 1013.7 hPa NE 3.2 km/h 7.6 km/h 76% 0.0 mm CLR
09:20 17.0 °C 12.6 °C 1013.8 hPa ENE 5.0 km/h 7.4 km/h 75% 0.0 mm CLR
09:25 17.1 °C 12.4 °C 1013.8 hPa North 5.0 km/h 11.1 km/h 74% 0.0 mm CLR
09:30 17.3 °C 12.6 °C 1013.8 hPa NE 6.4 km/h 7.4 km/h 74% 0.0 mm CLR
09:35 17.4 °C 12.5 °C 1013.9 hPa NE 6.4 km/h 11.1 km/h 73% 0.0 mm CLR
09:40 17.5 °C 12.8 °C 1013.9 hPa NE 6.4 km/h 13.0 km/h 74% 0.0 mm CLR
09:45 17.7 °C 12.8 °C 1013.9 hPa NNE 6.4 km/h 8.4 km/h 73% 0.0 mm CLR
09:50 17.9 °C 12.8 °C 1013.9 hPa ENE 6.9 km/h 13.0 km/h 72% 0.0 mm CLR
09:55 18.0 °C 12.9 °C 1013.9 hPa ENE 6.9 km/h 9.3 km/h 72% 0.0 mm CLR
10:00 18.1 °C 12.8 °C 1013.9 hPa ENE 8.0 km/h 11.3 km/h 71% 0.0 mm CLR
10:05 18.2 °C 12.6 °C 1013.9 hPa North 6.9 km/h 11.1 km/h 70% 0.0 mm CLR
10:10 18.3 °C 12.7 °C 1013.9 hPa East 6.4 km/h 11.1 km/h 70% 0.0 mm CLR
10:15 18.5 °C 12.5 °C 1013.9 hPa ENE 6.4 km/h 7.6 km/h 68% 0.0 mm CLR
10:20 18.8 °C 12.6 °C 1014.0 hPa NE 5.0 km/h 7.4 km/h 67% 0.0 mm CLR
10:25 19.1 °C 12.4 °C 1014.0 hPa ENE 5.0 km/h 5.6 km/h 65% 0.0 mm CLR
10:30 19.4 °C 12.2 °C 1014.0 hPa NE 4.7 km/h 9.3 km/h 63% 0.0 mm CLR
10:35 19.5 °C 12.0 °C 1014.0 hPa East 4.7 km/h 9.3 km/h 62% 0.0 mm CLR
10:40 19.6 °C 12.1 °C 1014.0 hPa ENE 6.4 km/h 7.4 km/h 62% 0.0 mm CLR
10:45 19.7 °C 11.9 °C 1014.0 hPa SE 6.4 km/h 7.4 km/h 61% 0.0 mm CLR
10:50 19.8 °C 12.1 °C 1014.1 hPa ESE 5.0 km/h 13.0 km/h 61% 0.0 mm CLR
10:55 19.9 °C 11.9 °C 1014.1 hPa ESE 5.0 km/h 9.3 km/h 60% 0.0 mm CLR
11:00 20.1 °C 11.3 °C 1014.1 hPa ESE 8.0 km/h 19.3 km/h 57% 0.0 mm CLR
11:05 19.9 °C 10.8 °C 1014.3 hPa SSE 6.9 km/h 15.6 km/h 56% 0.0 mm CLR
11:10 20.0 °C 10.7 °C 1014.3 hPa SE 13.0 km/h 14.8 km/h 55% 0.0 mm CLR
11:15 20.1 °C 10.5 °C 1014.3 hPa SSE 13.0 km/h 14.8 km/h 54% 0.0 mm CLR
11:20 20.2 °C 10.6 °C 1014.3 hPa SSE 10.3 km/h 18.5 km/h 54% 0.0 mm CLR
11:25 20.2 °C 10.9 °C 1014.3 hPa SSE 10.3 km/h 24.5 km/h 55% 0.0 mm CLR
11:30 20.2 °C 10.9 °C 1014.3 hPa ESE 12.2 km/h 18.5 km/h 55% 0.0 mm CLR
11:35 20.2 °C 10.9 °C 1014.5 hPa ESE 12.2 km/h 22.2 km/h 55% 0.0 mm CLR
11:40 20.2 °C 10.9 °C 1014.5 hPa SE 14.8 km/h 25.1 km/h 55% 0.0 mm CLR
11:45 20.3 °C 10.9 °C 1014.5 hPa SSE 14.8 km/h 25.9 km/h 55% 0.0 mm CLR
11:50 20.3 °C 10.7 °C 1014.6 hPa ESE 14.8 km/h 25.6 km/h 54% 0.0 mm CLR
11:55 20.2 °C 10.9 °C 1014.6 hPa SE 14.8 km/h 22.2 km/h 55% 0.0 mm CLR
12:00 20.3 °C 10.7 °C 1014.6 hPa ESE 16.1 km/h 25.7 km/h 54% 0.0 mm CLR
12:05 20.4 °C 10.2 °C 1014.5 hPa ESE 16.4 km/h 25.9 km/h 52% 0.0 mm CLR
12:10 20.6 °C 10.7 °C 1014.5 hPa ESE 16.1 km/h 27.8 km/h 53% 0.0 mm CLR
12:15 20.4 °C 10.5 °C 1014.5 hPa ESE 16.1 km/h 29.6 km/h 53% 0.0 mm CLR
12:20 20.5 °C 10.6 °C 1014.6 hPa SSE 19.0 km/h 27.8 km/h 53% 0.0 mm CLR
12:25 20.4 °C 10.5 °C 1014.6 hPa ESE 19.0 km/h 18.5 km/h 53% 0.0 mm CLR
12:30 20.6 °C 10.7 °C 1014.6 hPa ESE 14.8 km/h 25.9 km/h 53% 0.0 mm CLR
12:35 20.7 °C 10.8 °C 1014.8 hPa ESE 14.8 km/h 24.5 km/h 53% 0.0 mm CLR
12:40 20.7 °C 10.8 °C 1014.8 hPa SE 17.2 km/h 29.6 km/h 53% 0.0 mm CLR
12:45 20.8 °C 10.3 °C 1014.8 hPa ESE 17.2 km/h 27.8 km/h 51% 0.0 mm CLR
12:50 20.4 °C 9.9 °C 1014.9 hPa ESE 18.0 km/h 18.5 km/h 51% 0.0 mm CLR
12:55 20.6 °C 9.8 °C 1014.9 hPa SE 18.0 km/h 33.3 km/h 50% 0.0 mm CLR
13:00 20.4 °C 9.7 °C 1014.9 hPa ESE 16.1 km/h 30.6 km/h 50% 0.0 mm CLR
13:05 20.4 °C 9.3 °C 1015.0 hPa ESE 17.2 km/h 29.6 km/h 49% 0.0 mm CLR
13:10 20.5 °C 9.7 °C 1015.0 hPa SE 19.0 km/h 20.4 km/h 50% 0.0 mm CLR
13:15 20.7 °C 9.9 °C 1015.0 hPa ESE 19.0 km/h 29.1 km/h 50% 0.0 mm CLR
13:20 20.6 °C 10.1 °C 1014.9 hPa ESE 18.0 km/h 27.8 km/h 51% 0.0 mm CLR
13:25 20.5 °C 10.0 °C 1014.9 hPa SE 18.0 km/h 24.1 km/h 51% 0.0 mm CLR
13:30 20.6 °C 10.7 °C 1014.9 hPa ESE 16.1 km/h 29.6 km/h 53% 0.0 mm CLR
13:35 20.2 °C 10.6 °C 1014.9 hPa SE 16.1 km/h 27.8 km/h 54% 0.0 mm CLR
13:40 20.4 °C 10.8 °C 1014.9 hPa SSE 19.0 km/h 33.3 km/h 54% 0.0 mm CLR
13:45 20.2 °C 10.9 °C 1014.9 hPa SE 19.0 km/h 33.3 km/h 55% 0.0 mm CLR
13:50 20.6 °C 11.2 °C 1014.7 hPa ESE 19.8 km/h 25.9 km/h 55% 0.0 mm CLR
13:55 20.7 °C 11.1 °C 1014.7 hPa East 19.8 km/h 29.6 km/h 54% 0.0 mm CLR
14:00 20.6 °C 11.2 °C 1014.7 hPa ESE 16.1 km/h 30.6 km/h 55% 0.0 mm CLR
14:05 20.4 °C 10.8 °C 1014.8 hPa SE 17.2 km/h 27.8 km/h 54% 0.0 mm CLR
14:10 20.6 °C 11.2 °C 1014.8 hPa ESE 18.0 km/h 18.5 km/h 55% 0.0 mm CLR
14:15 20.8 °C 10.9 °C 1014.8 hPa SE 18.0 km/h 33.3 km/h 53% 0.0 mm CLR
14:20 20.9 °C 11.2 °C 1014.7 hPa ENE 17.2 km/h 27.8 km/h 54% 0.0 mm CLR
14:25 21.0 °C 10.8 °C 1014.7 hPa ESE 17.2 km/h 22.2 km/h 52% 0.0 mm CLR
14:30 20.8 °C 10.9 °C 1014.7 hPa ESE 17.2 km/h 27.8 km/h 53% 0.0 mm CLR
14:35 20.8 °C 10.9 °C 1014.7 hPa ESE 17.2 km/h 35.2 km/h 53% 0.0 mm CLR
14:40 20.7 °C 11.1 °C 1014.7 hPa ESE 18.0 km/h 25.6 km/h 54% 0.0 mm CLR
14:45 20.9 °C 10.9 °C 1014.7 hPa ESE 18.0 km/h 27.8 km/h 53% 0.0 mm CLR
14:50 20.9 °C 10.7 °C 1014.6 hPa SE 18.0 km/h 22.2 km/h 52% 0.0 mm CLR
14:55 20.8 °C 10.6 °C 1014.6 hPa SE 18.0 km/h 22.2 km/h 52% 0.0 mm CLR
15:00 20.9 °C 10.7 °C 1014.6 hPa SE 14.5 km/h 20.9 km/h 52% 0.0 mm CLR
15:05 21.2 °C 10.9 °C 1014.6 hPa ESE 15.6 km/h 25.9 km/h 52% 0.0 mm CLR
15:10 21.1 °C 10.6 °C 1014.6 hPa East 14.0 km/h 20.4 km/h 51% 0.0 mm CLR
15:15 21.2 °C 10.9 °C 1014.6 hPa East 14.0 km/h 24.1 km/h 52% 0.0 mm CLR
15:20 21.2 °C 10.9 °C 1014.4 hPa East 13.0 km/h 27.8 km/h 52% 0.0 mm CLR
15:25 21.2 °C 10.7 °C 1014.4 hPa East 13.0 km/h 22.2 km/h 51% 0.0 mm CLR
15:30 21.2 °C 10.9 °C 1014.4 hPa ESE 18.0 km/h 27.8 km/h 52% 0.0 mm CLR
15:35 21.4 °C 10.6 °C 1014.4 hPa East 18.0 km/h 18.5 km/h 50% 0.0 mm CLR
15:40 21.6 °C 10.7 °C 1014.4 hPa SE 14.0 km/h 29.6 km/h 50% 0.0 mm CLR
15:45 21.3 °C 11.1 °C 1014.4 hPa SE 14.0 km/h 27.8 km/h 52% 0.0 mm CLR
15:50 21.4 °C 11.1 °C 1014.2 hPa ESE 17.2 km/h 24.1 km/h 52% 0.0 mm CLR
15:55 21.4 °C 10.8 °C 1014.2 hPa SE 17.2 km/h 27.8 km/h 51% 0.0 mm CLR
16:00 21.6 °C 11.3 °C 1014.2 hPa ESE 14.5 km/h 27.4 km/h 52% 0.0 mm CLR
16:05 21.7 °C 11.4 °C 1014.1 hPa ESE 14.8 km/h 23.3 km/h 52% 0.0 mm CLR
16:10 21.6 °C 11.3 °C 1014.1 hPa SE 14.8 km/h 24.1 km/h 52% 0.0 mm CLR
16:15 21.7 °C 11.4 °C 1014.1 hPa ENE 14.8 km/h 22.2 km/h 52% 0.0 mm CLR
16:20 21.7 °C 11.4 °C 1013.9 hPa SE 14.8 km/h 25.9 km/h 52% 0.0 mm CLR
16:25 22.0 °C 11.4 °C 1013.9 hPa East 14.8 km/h 14.8 km/h 51% 0.0 mm CLR
16:30 21.9 °C 11.6 °C 1013.9 hPa ESE 12.2 km/h 18.5 km/h 52% 0.0 mm CLR
16:35 21.8 °C 11.5 °C 1013.6 hPa ENE 12.2 km/h 20.4 km/h 52% 0.0 mm CLR
16:40 21.9 °C 11.3 °C 1013.6 hPa ENE 13.7 km/h 22.2 km/h 51% 0.0 mm CLR
16:45 21.9 °C 11.3 °C 1013.6 hPa East 13.7 km/h 25.1 km/h 51% 0.0 mm CLR
16:50 21.7 °C 11.1 °C 1013.5 hPa East 16.1 km/h 25.9 km/h 51% 0.0 mm CLR
16:55 21.8 °C 11.2 °C 1013.5 hPa ESE 16.1 km/h 25.9 km/h 51% 0.0 mm CLR
17:00 21.8 °C 11.2 °C 1013.5 hPa ESE 14.5 km/h 22.5 km/h 51% 0.0 mm CLR
17:05 21.7 °C 11.1 °C 1013.2 hPa ESE 14.0 km/h 22.2 km/h 51% 0.0 mm CLR
17:10 21.7 °C 11.4 °C 1013.2 hPa SSE 14.0 km/h 14.8 km/h 52% 0.0 mm CLR
17:15 21.8 °C 11.2 °C 1013.2 hPa NE 14.0 km/h 14.8 km/h 51% 0.0 mm CLR
17:20 21.8 °C 11.2 °C 1013.0 hPa East 11.9 km/h 27.8 km/h 51% 0.0 mm CLR
17:25 21.8 °C 11.2 °C 1013.0 hPa ESE 11.9 km/h 16.4 km/h 51% 0.0 mm CLR
17:30 21.9 °C 11.0 °C 1013.0 hPa SSE 14.0 km/h 18.5 km/h 50% 0.0 mm CLR
17:35 21.7 °C 10.8 °C 1013.0 hPa ESE 14.0 km/h 31.5 km/h 50% 0.0 mm CLR
17:40 21.6 °C 11.0 °C 1013.0 hPa ESE 15.6 km/h 24.1 km/h 51% 0.0 mm CLR
17:45 21.7 °C 11.1 °C 1013.0 hPa East 15.6 km/h 16.7 km/h 51% 0.0 mm CLR
17:50 21.7 °C 10.8 °C 1013.0 hPa ESE 13.7 km/h 28.2 km/h 50% 0.0 mm CLR
17:55 21.6 °C 10.7 °C 1013.0 hPa ESE 13.7 km/h 24.5 km/h 50% 0.0 mm CLR
18:00 21.7 °C 10.8 °C 1013.0 hPa ESE 14.5 km/h 25.7 km/h 50% 0.0 mm CLR
18:05 21.9 °C 10.7 °C 1012.9 hPa ESE 14.8 km/h 22.2 km/h 49% 0.0 mm CLR
18:10 21.7 °C 10.8 °C 1012.9 hPa ESE 13.0 km/h 29.8 km/h 50% 0.0 mm CLR
18:15 21.6 °C 10.7 °C 1012.9 hPa SE 13.0 km/h 20.4 km/h 50% 0.0 mm CLR
18:20 21.7 °C 10.8 °C 1012.7 hPa ESE 16.1 km/h 22.2 km/h 50% 0.0 mm CLR
18:25 21.4 °C 10.6 °C 1012.7 hPa ESE 16.1 km/h 24.1 km/h 50% 0.0 mm CLR
18:30 21.3 °C 10.7 °C 1012.7 hPa ESE 17.2 km/h 24.1 km/h 51% 0.0 mm CLR
18:35 21.3 °C 10.7 °C 1012.8 hPa East 17.2 km/h 24.1 km/h 51% 0.0 mm CLR
18:40 21.3 °C 10.7 °C 1012.8 hPa ESE 16.1 km/h 18.5 km/h 51% 0.0 mm CLR
18:45 21.4 °C 10.6 °C 1012.8 hPa SE 16.1 km/h 21.7 km/h 50% 0.0 mm CLR
18:50 21.4 °C 10.8 °C 1012.8 hPa East 14.0 km/h 22.2 km/h 51% 0.0 mm CLR
18:55 21.3 °C 10.7 °C 1012.8 hPa ESE 14.0 km/h 22.2 km/h 51% 0.0 mm CLR
19:00 21.2 °C 10.7 °C 1012.8 hPa ESE 14.5 km/h 24.1 km/h 51% 0.0 mm CLR
19:05 21.2 °C 10.7 °C 1012.8 hPa SE 15.6 km/h 14.0 km/h 51% 0.0 mm CLR
19:10 21.3 °C 10.7 °C 1012.8 hPa ESE 13.0 km/h 17.2 km/h 51% 0.0 mm CLR
19:15 21.1 °C 10.8 °C 1012.8 hPa SE 13.0 km/h 20.1 km/h 52% 0.0 mm CLR
19:20 21.1 °C 10.8 °C 1012.8 hPa East 13.7 km/h 14.8 km/h 52% 0.0 mm CLR
19:25 21.1 °C 10.8 °C 1012.8 hPa SSE 13.7 km/h 27.8 km/h 52% 0.0 mm CLR
19:30 20.9 °C 10.9 °C 1012.8 hPa SE 13.0 km/h 24.1 km/h 53% 0.0 mm CLR
19:35 20.8 °C 10.9 °C 1012.7 hPa ESE 13.0 km/h 22.2 km/h 53% 0.0 mm CLR
19:40 20.7 °C 11.1 °C 1012.7 hPa ESE 14.8 km/h 20.4 km/h 54% 0.0 mm CLR
19:45 20.4 °C 10.8 °C 1012.7 hPa ESE 14.8 km/h 18.5 km/h 54% 0.0 mm CLR
19:50 20.4 °C 11.1 °C 1012.9 hPa SE 13.0 km/h 24.5 km/h 55% 0.0 mm CLR
19:55 20.3 °C 10.9 °C 1012.9 hPa SE 13.0 km/h 25.9 km/h 55% 0.0 mm CLR
20:00 20.2 °C 11.1 °C 1012.9 hPa ESE 14.5 km/h 22.5 km/h 56% 0.0 mm CLR
20:05 20.0 °C 10.9 °C 1013.0 hPa East 14.8 km/h 16.7 km/h 56% 0.0 mm CLR
20:10 20.0 °C 10.9 °C 1013.0 hPa East 12.2 km/h 18.3 km/h 56% 0.0 mm CLR
20:15 20.1 °C 11.1 °C 1013.0 hPa East 12.2 km/h 22.2 km/h 56% 0.0 mm CLR
20:20 19.9 °C 11.1 °C 1013.2 hPa ESE 11.9 km/h 27.8 km/h 57% 0.0 mm CLR
20:25 19.7 °C 11.2 °C 1013.2 hPa ESE 11.9 km/h 11.1 km/h 58% 0.0 mm CLR
20:30 19.6 °C 11.1 °C 1013.2 hPa ESE 12.2 km/h 16.7 km/h 58% 0.0 mm CLR
20:35 19.6 °C 11.4 °C 1013.2 hPa ESE 12.2 km/h 13.0 km/h 59% 0.0 mm CLR
20:40 19.5 °C 11.3 °C 1013.2 hPa ESE 10.0 km/h 13.0 km/h 59% 0.0 mm CLR
20:45 19.3 °C 11.3 °C 1013.2 hPa ESE 10.0 km/h 17.2 km/h 60% 0.0 mm CLR
20:50 19.2 °C 11.2 °C 1013.3 hPa SE 10.3 km/h 16.7 km/h 60% 0.0 mm CLR
20:55 19.1 °C 11.4 °C 1013.3 hPa SE 10.3 km/h 14.8 km/h 61% 0.0 mm CLR
21:00 19.1 °C 11.4 °C 1013.3 hPa ESE 11.3 km/h 16.1 km/h 61% 0.0 mm CLR
21:05 19.1 °C 11.4 °C 1013.5 hPa NE 10.3 km/h 9.3 km/h 61% 0.0 mm CLR
21:10 18.9 °C 11.2 °C 1013.5 hPa North 6.4 km/h 11.9 km/h 61% 0.0 mm CLR
21:15 18.6 °C 11.4 °C 1013.5 hPa NNE 6.4 km/h 18.0 km/h 63% 0.0 mm CLR
21:20 18.4 °C 11.2 °C 1013.7 hPa ENE 10.0 km/h 13.0 km/h 63% 0.0 mm CLR
21:25 18.3 °C 11.4 °C 1013.7 hPa NNE 10.0 km/h 13.0 km/h 64% 0.0 mm CLR
21:30 18.2 °C 11.3 °C 1013.7 hPa NE 8.7 km/h 18.3 km/h 64% 0.0 mm CLR
21:35 17.8 °C 11.1 °C 1013.9 hPa NNE 8.7 km/h 18.5 km/h 65% 0.0 mm CLR
21:40 17.6 °C 11.2 °C 1013.9 hPa NE 12.2 km/h 13.0 km/h 66% 0.0 mm CLR
21:45 17.4 °C 11.2 °C 1013.9 hPa NE 12.2 km/h 16.7 km/h 67% 0.0 mm CLR
21:50 17.4 °C 11.2 °C 1014.0 hPa NNE 11.9 km/h 13.0 km/h 67% 0.0 mm CLR
21:55 17.3 °C 11.1 °C 1014.0 hPa NNE 11.9 km/h 14.8 km/h 67% 0.0 mm CLR
22:00 17.2 °C 11.2 °C 1014.0 hPa NE 9.7 km/h 19.3 km/h 68% 0.0 mm CLR
22:05 17.0 °C 11.1 °C 1014.1 hPa NE 9.5 km/h 14.8 km/h 68% 0.0 mm CLR
22:10 16.8 °C 11.1 °C 1014.1 hPa NE 10.0 km/h 14.8 km/h 69% 0.0 mm CLR
22:15 16.7 °C 11.2 °C 1014.1 hPa NNE 10.0 km/h 14.8 km/h 70% 0.0 mm CLR
22:20 16.6 °C 11.1 °C 1014.3 hPa NNE 10.0 km/h 7.4 km/h 70% 0.0 mm CLR
22:25 16.6 °C 11.1 °C 1014.3 hPa NNE 10.0 km/h 13.0 km/h 70% 0.0 mm CLR
22:30 16.5 °C 11.2 °C 1014.3 hPa NE 7.6 km/h 14.8 km/h 71% 0.0 mm CLR
22:35 16.3 °C 11.1 °C 1014.4 hPa NNE 7.6 km/h 16.7 km/h 71% 0.0 mm CLR
22:40 16.2 °C 11.2 °C 1014.4 hPa NNE 9.5 km/h 11.1 km/h 72% 0.0 mm CLR
22:45 16.2 °C 11.2 °C 1014.4 hPa NNE 9.5 km/h 9.3 km/h 72% 0.0 mm CLR
22:50 16.1 °C 11.3 °C 1014.6 hPa NE 8.4 km/h 9.3 km/h 73% 0.0 mm CLR
22:55 16.1 °C 11.3 °C 1014.6 hPa NNE 8.4 km/h 9.5 km/h 73% 0.0 mm CLR
23:00 16.0 °C 11.2 °C 1014.6 hPa NNE 8.0 km/h 12.9 km/h 73% 0.0 mm CLR
23:05 15.9 °C 11.1 °C 1014.8 hPa North 6.9 km/h 11.1 km/h 73% 0.0 mm CLR
23:10 15.9 °C 11.3 °C 1014.8 hPa NNE 7.6 km/h 11.1 km/h 74% 0.0 mm CLR
23:15 15.9 °C 11.3 °C 1014.8 hPa NNE 7.6 km/h 7.4 km/h 74% 0.0 mm CLR
23:20 15.9 °C 11.3 °C 1014.8 hPa NNE 5.0 km/h 11.1 km/h 74% 0.0 mm CLR
23:25 15.9 °C 11.3 °C 1014.8 hPa NNE 5.0 km/h 7.4 km/h 74% 0.0 mm CLR
23:30 15.9 °C 11.3 °C 1014.8 hPa NE 3.9 km/h 5.6 km/h 74% 0.0 mm CLR
23:35 15.9 °C 11.3 °C 1014.9 hPa NE 3.9 km/h 9.3 km/h 74% 0.0 mm CLR
23:40 15.9 °C 11.3 °C 1014.9 hPa NE 5.8 km/h 11.1 km/h 74% 0.0 mm CLR
23:45 15.8 °C 11.2 °C 1014.9 hPa NNE 5.8 km/h 9.3 km/h 74% 0.0 mm CLR
23:50 15.7 °C 11.3 °C 1015.1 hPa NNE 6.9 km/h 7.4 km/h 75% 0.0 mm CLR
23:55 15.7 °C 11.3 °C 1015.1 hPa NNE 6.9 km/h 11.1 km/h 75% 0.0 mm CLR
Murcia-Puente Tocinos, España
Compliments of Weather Underground - 2.75 mb

La estación de MeteoMurcia.com, publica sus datos en los siguientes proyectos:

Weather Underground PWS IMURCIAP2 Meteoclimatic www.awekas.at

W3Counter
Web Analytics